KLM100 LFBO-EHAM

Flight info

Callsign KLM100
Flight time N/A
Altitude 36000
Route FISTO DCT PERIG DCT ADABI DCT BOKNO UN858 VANAD UN874 BAMES UT191 PODEM UN873 BAZOS DCT LUMIL DCT BELOB UY873 DENUT
Aircraft A359/H-SDE2E3GHIJ3J4J5LM1ORWXY/LB1D1

Departure

Time 2026-05-04 10:44
Airport Toulouse-Blagnac Airport (LFBO)

Arrival

Time N/A
Airport Amsterdam Airport Schiphol (EHAM)
Time Latitude Longitude Altitude Speed Heading
2026-05-04 10:21 43.61844 1.36195 500 ft 0 kts 274°
2026-05-04 10:36 43.61844 1.36193 500 ft 3 kts 278°
2026-05-04 10:37 43.61877 1.36155 500 ft 8 kts 348°
2026-05-04 10:37 43.61940 1.36181 500 ft 12 kts 21°
2026-05-04 10:37 43.62031 1.36230 500 ft 16 kts 21°
2026-05-04 10:37 43.62145 1.36276 500 ft 16 kts 26°
2026-05-04 10:39 43.62681 1.36081 500 ft 31 kts 323°
2026-05-04 10:39 43.62859 1.35897 501 ft 32 kts 322°
2026-05-04 10:39 43.63021 1.35727 501 ft 29 kts 322°
2026-05-04 10:40 43.63190 1.35551 501 ft 32 kts 323°
2026-05-04 10:40 43.63344 1.35393 501 ft 23 kts 323°
2026-05-04 10:40 43.63448 1.35309 501 ft 13 kts
2026-05-04 10:40 43.63527 1.35400 500 ft 17 kts 51°
2026-05-04 10:41 43.63589 1.35519 501 ft 17 kts 54°
2026-05-04 10:41 43.63660 1.35653 502 ft 14 kts 53°
2026-05-04 10:41 43.63709 1.35744 502 ft 8 kts 64°
2026-05-04 10:41 43.63690 1.35813 503 ft 8 kts 142°
2026-05-04 10:42 43.63684 1.35818 503 ft 0 kts 144°
2026-05-04 10:42 43.63680 1.35822 503 ft 8 kts 144°
2026-05-04 10:43 43.63423 1.36089 504 ft 91 kts 142°
2026-05-04 10:44 43.61221 1.32125 4978 ft 256 kts 333°
2026-05-04 10:45 43.62955 1.31434 5962 ft 266 kts 353°
2026-05-04 10:45 43.64844 1.31217 6891 ft 278 kts 356°
2026-05-04 10:45 43.66795 1.31042 8012 ft 283 kts 355°
2026-05-04 10:45 43.68778 1.30835 9202 ft 288 kts 354°
2026-05-04 10:46 43.70800 1.30642 10332 ft 296 kts 355°
2026-05-04 10:46 43.72941 1.30441 10981 ft 322 kts 355°
2026-05-04 10:46 43.75269 1.30210 11573 ft 346 kts 354°
2026-05-04 10:46 43.77707 1.29962 12546 ft 356 kts 354°
2026-05-04 10:47 43.80207 1.29705 13550 ft 364 kts 354°
2026-05-04 10:47 43.82763 1.29439 14460 ft 373 kts 354°
2026-05-04 10:47 43.85375 1.29166 15315 ft 381 kts 354°
2026-05-04 10:47 43.88043 1.28887 16186 ft 388 kts 354°
2026-05-04 10:49 44.07931 1.26791 22267 ft 431 kts 353°
2026-05-04 10:49 44.10940 1.26472 23104 ft 436 kts 353°
2026-05-04 10:50 44.13988 1.26149 23879 ft 442 kts 353°
2026-05-04 10:51 44.36297 1.23775 28791 ft 476 kts 353°
2026-05-04 10:52 44.39616 1.23420 29468 ft 481 kts 353°
2026-05-04 10:52 44.42964 1.23061 30114 ft 485 kts 353°
2026-05-04 10:52 44.46330 1.22497 30586 ft 488 kts 346°
2026-05-04 10:54 44.69750 1.13513 34107 ft 508 kts 340°
2026-05-04 10:54 44.73111 1.12190 34460 ft 512 kts 340°